This is the latest recevied weather packets stored in our database for station/object DO1BDB-12. If no packets are shown the sender has not sent any weather packets the latest 10 day(s).
| Time | Temp. | Humidity | Pressure | Rain* | Wind** | Luminosity | Snow |
|---|---|---|---|---|---|---|---|
| 1777463735 | 18.89° C | 28% | 103 hPa | - | - | - | - |
| 1777463669 | 18.89° C | 29% | 103 hPa | - | - | - | - |
| 1777463603 | 19.44° C | 29% | 103 hPa | - | - | - | - |
| 1777463537 | 19.44° C | 29% | 103 hPa | - | - | - | - |
| 1777463472 | 19.44° C | 30% | 103 hPa | - | - | - | - |
| 1777463406 | 18.89° C | 30% | 103 hPa | - | - | - | - |
| 1777463340 | 20° C | 29% | 103 hPa | - | - | - | - |
| 1777463274 | 19.44° C | 31% | 103 hPa | - | - | - | - |
| 1777463208 | 18.89° C | 29% | 103 hPa | - | - | - | - |
| 1777463142 | 19.44° C | 29% | 103 hPa | - | - | - | - |
| 1777463076 | 19.44° C | 28% | 103 hPa | - | - | - | - |
| 1777463011 | 18.89° C | 30% | 103 hPa | - | - | - | - |
| 1777462945 | 17.78° C | 30% | 103 hPa | - | - | - | - |
| 1777462879 | 20° C | 29% | 103 hPa | - | - | - | - |
| 1777462813 | 19.44° C | 29% | 103 hPa | - | - | - | - |
| 1777462747 | 18.89° C | 30% | 103 hPa | - | - | - | - |
| 1777462682 | 18.33° C | 27% | 103 hPa | - | - | - | - |
| 1777462615 | 18.89° C | 27% | 103 hPa | - | - | - | - |
| 1777462550 | 18.33° C | 28% | 103 hPa | - | - | - | - |
| 1777462484 | 18.89° C | 28% | 103 hPa | - | - | - | - |
| 1777462418 | 18.89° C | 29% | 103 hPa | - | - | - | - |
| 1777462352 | 18.89° C | 31% | 103 hPa | - | - | - | - |
| 1777462286 | 18.33° C | 29% | 103 hPa | - | - | - | - |
| 1777462220 | 18.33° C | 30% | 103 hPa | - | - | - | - |
| 1777462155 | 18.89° C | 30% | 103 hPa | - | - | - | - |
* Rain since midnight (hover to see other rain measurements)
** Current wind speed in m/s (hover to see current wind gust speed)